SWA3609 KOKC-KBNA

Flight info

Callsign SWA3609
Flight time 1h 18m
Altitude 39000
Route FUNNL3 PHARA KM33G ECIGE WFIVE LOPPY CHSNE3
Aircraft B38M/M-SDE1FGHILORVWXY/HB1

Departure

Time 2026-04-26 02:18
Airport OKC Will Rogers World Airport (KOKC)

Arrival

Time 2026-04-26 03:37
Airport Nashville International Airport (KBNA)
Time Latitude Longitude Altitude Speed Heading
2026-04-26 01:35 35.39455 -97.59616 1299 ft 0 kts 353°
2026-04-26 02:02 35.39444 -97.59614 1300 ft 4 kts 351°
2026-04-26 02:02 35.39418 -97.59607 1300 ft 4 kts 340°
2026-04-26 02:02 35.39394 -97.59592 1300 ft 4 kts 317°
2026-04-26 02:03 35.39383 -97.59569 1300 ft 2 kts 270°
2026-04-26 02:03 35.39383 -97.59567 1300 ft 1 kts 270°
2026-04-26 02:11 35.39383 -97.59568 1300 ft 1 kts 270°
2026-04-26 02:12 35.39384 -97.59592 1300 ft 5 kts 273°
2026-04-26 02:12 35.39391 -97.59666 1300 ft 13 kts 282°
2026-04-26 02:12 35.39414 -97.59791 1299 ft 18 kts 274°
2026-04-26 02:12 35.39416 -97.59904 1299 ft 16 kts 271°
2026-04-26 02:13 35.39430 -97.60089 1295 ft 15 kts 295°
2026-04-26 02:13 35.39508 -97.60198 1293 ft 16 kts 316°
2026-04-26 02:13 35.39590 -97.60294 1293 ft 17 kts 316°
2026-04-26 02:13 35.39682 -97.60384 1290 ft 17 kts 339°
2026-04-26 02:14 35.39764 -97.60401 1291 ft 18 kts 358°
2026-04-26 02:14 35.39894 -97.60401 1292 ft 19 kts
2026-04-26 02:14 35.40026 -97.60401 1295 ft 19 kts
2026-04-26 02:14 35.40162 -97.60401 1297 ft 20 kts
2026-04-26 02:15 35.40300 -97.60401 1299 ft 20 kts 359°
2026-04-26 02:15 35.40445 -97.60401 1300 ft 20 kts
2026-04-26 02:15 35.40570 -97.60414 1299 ft 14 kts 315°
2026-04-26 02:15 35.40579 -97.60449 1300 ft 0 kts 271°
2026-04-26 02:16 35.40579 -97.60450 1300 ft 0 kts 271°
2026-04-26 02:16 35.40579 -97.60455 1300 ft 1 kts 271°
2026-04-26 02:16 35.40579 -97.60471 1300 ft 4 kts 272°
2026-04-26 02:17 35.40581 -97.60542 1300 ft 13 kts 263°
2026-04-26 02:17 35.40535 -97.60575 1300 ft 0 kts 181°
2026-04-26 02:17 35.40511 -97.60574 1300 ft 13 kts 178°
2026-04-26 02:18 35.40151 -97.60572 1298 ft 90 kts 180°
2026-04-26 02:18 35.39296 -97.60566 1296 ft 152 kts 178°
2026-04-26 02:18 35.38112 -97.60565 1529 ft 182 kts 180°
2026-04-26 02:18 35.36828 -97.60574 2240 ft 184 kts 179°
2026-04-26 02:19 35.35547 -97.60561 3094 ft 189 kts 179°
2026-04-26 02:19 35.34151 -97.60539 3676 ft 212 kts 178°
2026-04-26 02:19 35.32662 -97.60047 4159 ft 239 kts 145°
2026-04-26 02:19 35.31626 -97.58412 4810 ft 256 kts 109°
2026-04-26 02:20 35.31521 -97.56193 5511 ft 271 kts 78°
2026-04-26 02:20 35.31898 -97.53878 6305 ft 283 kts 79°
2026-04-26 02:20 35.32225 -97.51470 7137 ft 291 kts 79°
2026-04-26 02:20 35.32551 -97.48987 7930 ft 299 kts 79°
2026-04-26 02:21 35.32881 -97.46445 8798 ft 306 kts 80°
2026-04-26 02:21 35.33215 -97.43829 9637 ft 314 kts 80°
2026-04-26 02:21 35.33553 -97.41156 10440 ft 321 kts 80°
2026-04-26 02:21 35.33898 -97.38406 11068 ft 335 kts 80°
2026-04-26 02:22 35.34252 -97.35508 11604 ft 352 kts 80°
2026-04-26 02:22 35.34622 -97.32492 12225 ft 364 kts 80°
2026-04-26 02:22 35.35004 -97.29410 13059 ft 368 kts 80°
2026-04-26 02:22 35.35393 -97.26328 13844 ft 373 kts 80°
2026-04-26 02:23 35.35794 -97.23124 14604 ft 378 kts 80°
2026-04-26 02:23 35.36192 -97.19970 15387 ft 381 kts 80°
2026-04-26 02:23 35.36603 -97.16704 16162 ft 385 kts 80°
2026-04-26 02:23 35.37007 -97.13486 16917 ft 388 kts 80°
2026-04-26 02:24 35.37418 -97.10203 17659 ft 392 kts 80°
2026-04-26 02:24 35.37833 -97.06886 18349 ft 396 kts 80°
2026-04-26 02:24 35.38250 -97.03541 18996 ft 398 kts 80°
2026-04-26 02:24 35.38670 -97.00170 19617 ft 402 kts 80°
2026-04-26 02:25 35.39093 -96.96770 20240 ft 405 kts 80°
2026-04-26 02:25 35.39517 -96.93348 20858 ft 408 kts 81°
2026-04-26 02:25 35.39842 -96.89869 21450 ft 412 kts 83°
2026-04-26 02:25 35.40149 -96.86367 22049 ft 415 kts 83°
2026-04-26 02:26 35.40449 -96.82830 22652 ft 418 kts 83°
2026-04-26 02:26 35.40738 -96.79272 23211 ft 422 kts 83°
2026-04-26 02:26 35.41027 -96.75729 23701 ft 425 kts 83°
2026-04-26 02:26 35.41323 -96.72105 24149 ft 429 kts 83°
2026-04-26 02:27 35.41621 -96.68441 24577 ft 433 kts 83°
2026-04-26 02:27 35.41919 -96.64756 25019 ft 436 kts 83°
2026-04-26 02:27 35.42220 -96.61031 25436 ft 440 kts 83°
2026-04-26 02:27 35.42521 -96.57277 25867 ft 444 kts 83°
2026-04-26 02:28 35.42824 -96.53491 26269 ft 448 kts 83°
2026-04-26 02:28 35.43128 -96.49676 26672 ft 452 kts 83°
2026-04-26 02:28 35.43434 -96.45825 27090 ft 455 kts 83°
2026-04-26 02:28 35.43741 -96.41942 27462 ft 459 kts 83°
2026-04-26 02:29 35.44049 -96.38029 27848 ft 463 kts 83°
2026-04-26 02:29 35.44358 -96.34086 28240 ft 467 kts 83°
2026-04-26 02:29 35.44665 -96.30154 28616 ft 470 kts 83°
2026-04-26 02:29 35.44977 -96.26144 29006 ft 473 kts 83°
2026-04-26 02:30 35.45290 -96.22107 29377 ft 477 kts 83°
2026-04-26 02:30 35.45604 -96.18025 29736 ft 481 kts 83°
2026-04-26 02:30 35.45918 -96.13937 30059 ft 484 kts 83°
2026-04-26 02:30 35.46234 -96.09815 30383 ft 487 kts 83°
2026-04-26 02:31 35.46419 -96.05653 30717 ft 490 kts 87°
2026-04-26 02:31 35.46492 -96.01456 31030 ft 493 kts 86°
2026-04-26 02:31 35.46587 -95.97253 31343 ft 495 kts 86°
2026-04-26 02:31 35.46693 -95.93017 31662 ft 498 kts 86°
2026-04-26 02:32 35.46799 -95.88761 31951 ft 500 kts 86°
2026-04-26 02:32 35.46903 -95.84545 32251 ft 502 kts 86°
2026-04-26 02:32 35.47007 -95.80248 32546 ft 505 kts 86°
2026-04-26 02:32 35.47110 -95.75935 32836 ft 507 kts 86°
2026-04-26 02:33 35.47211 -95.71602 33131 ft 510 kts 86°
2026-04-26 02:33 35.47312 -95.67245 33413 ft 512 kts 86°
2026-04-26 02:33 35.47412 -95.62857 33674 ft 515 kts 86°
2026-04-26 02:33 35.47511 -95.58455 33960 ft 517 kts 86°
2026-04-26 02:34 35.47609 -95.54036 34219 ft 519 kts 86°
2026-04-26 02:34 35.47705 -95.49604 34548 ft 519 kts 86°
2026-04-26 02:34 35.47799 -95.45176 34898 ft 519 kts 86°
2026-04-26 02:34 35.47892 -95.40760 35236 ft 518 kts 86°
2026-04-26 02:35 35.47983 -95.36339 35562 ft 517 kts 86°
2026-04-26 02:35 35.48072 -95.31928 35920 ft 517 kts 86°
2026-04-26 02:35 35.48160 -95.27519 36170 ft 518 kts 86°
2026-04-26 02:35 35.48246 -95.23107 36434 ft 518 kts 86°
2026-04-26 02:36 35.48330 -95.18691 36729 ft 517 kts 86°
2026-04-26 02:36 35.48413 -95.14277 37026 ft 516 kts 86°
2026-04-26 02:36 35.48494 -95.09879 37312 ft 516 kts 86°
2026-04-26 02:36 35.48574 -95.05476 37591 ft 515 kts 86°
2026-04-26 02:37 35.48652 -95.01070 37886 ft 515 kts 86°
2026-04-26 02:37 35.48728 -94.96679 38164 ft 514 kts 86°
2026-04-26 02:37 35.48800 -94.92333 38428 ft 514 kts 86°
2026-04-26 02:37 35.48874 -94.87948 38540 ft 516 kts 86°
2026-04-26 02:38 35.48946 -94.83542 38707 ft 516 kts 86°
2026-04-26 02:38 35.49016 -94.79122 38873 ft 517 kts 86°
2026-04-26 02:38 35.49085 -94.74714 39014 ft 517 kts 86°
2026-04-26 02:39 35.49217 -94.65880 39027 ft 517 kts 87°
2026-04-26 02:39 35.49342 -94.57065 39052 ft 516 kts 87°
2026-04-26 02:40 35.49462 -94.48235 39055 ft 517 kts 87°
2026-04-26 02:40 35.49574 -94.39405 39053 ft 518 kts 87°
2026-04-26 02:41 35.49681 -94.30626 39054 ft 518 kts 87°
2026-04-26 02:41 35.49781 -94.21791 39056 ft 518 kts 87°
2026-04-26 02:42 35.49876 -94.12949 39044 ft 518 kts 88°
2026-04-26 02:42 35.49966 -94.04116 39049 ft 518 kts 88°
2026-04-26 02:43 35.50429 -93.90880 39059 ft 517 kts 85°
2026-04-26 02:43 35.50767 -93.82065 39054 ft 517 kts 85°
2026-04-26 02:44 35.51096 -93.73224 39061 ft 520 kts 86°
2026-04-26 02:44 35.51422 -93.64343 39064 ft 521 kts 86°
2026-04-26 02:45 35.51738 -93.55522 39061 ft 520 kts 86°
2026-04-26 02:45 35.52050 -93.46648 39071 ft 520 kts 86°
2026-04-26 02:46 35.52356 -93.37774 39071 ft 520 kts 86°
2026-04-26 02:46 35.52654 -93.28899 39079 ft 520 kts 86°
2026-04-26 02:47 35.52947 -93.20023 39084 ft 520 kts 86°
2026-04-26 02:47 35.53232 -93.11146 39080 ft 520 kts 86°
2026-04-26 02:48 35.53512 -93.02260 39086 ft 520 kts 86°
2026-04-26 02:48 35.53785 -92.93360 39096 ft 522 kts 86°
2026-04-26 02:49 35.54052 -92.84462 39090 ft 522 kts 86°
2026-04-26 02:49 35.54311 -92.75611 39107 ft 522 kts 86°
2026-04-26 02:50 35.54565 -92.66697 39146 ft 522 kts 86°
2026-04-26 02:50 35.54813 -92.57767 39135 ft 523 kts 86°
2026-04-26 02:51 35.55055 -92.48832 39142 ft 523 kts 86°
2026-04-26 02:51 35.55290 -92.39901 39139 ft 523 kts 86°
2026-04-26 02:52 35.55518 -92.30967 39134 ft 523 kts 86°
2026-04-26 02:52 35.55739 -92.22083 39127 ft 525 kts 86°
2026-04-26 02:53 35.55955 -92.13115 39116 ft 525 kts 86°
2026-04-26 02:53 35.56166 -92.04139 39100 ft 525 kts 86°
2026-04-26 02:54 35.56370 -91.95180 39102 ft 525 kts 86°
2026-04-26 02:54 35.56444 -91.86194 39100 ft 526 kts 88°
2026-04-26 02:55 35.56447 -91.81695 38949 ft 526 kts 88°
2026-04-26 02:55 35.56456 -91.77207 38893 ft 524 kts 88°
2026-04-26 02:55 35.56468 -91.68233 38916 ft 527 kts 88°
2026-04-26 02:56 35.56474 -91.59297 38905 ft 526 kts 88°
2026-04-26 02:56 35.56473 -91.50296 38924 ft 526 kts 88°
2026-04-26 02:57 35.56465 -91.41299 38906 ft 525 kts 88°
2026-04-26 02:57 35.56451 -91.32318 38919 ft 526 kts 88°
2026-04-26 02:58 35.56434 -91.24853 38920 ft 525 kts 88°
2026-04-26 02:58 35.56403 -91.14410 38916 ft 525 kts 88°
2026-04-26 02:59 35.56375 -91.06947 38920 ft 524 kts 88°
2026-04-26 02:59 35.56335 -90.97995 38908 ft 524 kts 88°
2026-04-26 03:00 35.56289 -90.89051 38896 ft 524 kts 88°
2026-04-26 03:00 35.56236 -90.80094 38900 ft 524 kts 88°
2026-04-26 03:01 35.56177 -90.71129 38900 ft 523 kts 88°
2026-04-26 03:01 35.56112 -90.62218 38900 ft 521 kts 88°
2026-04-26 03:02 35.56162 -90.53323 38882 ft 518 kts 80°
2026-04-26 03:02 35.56920 -90.44533 38897 ft 518 kts 80°
2026-04-26 03:03 35.57680 -90.35787 38885 ft 518 kts 80°
2026-04-26 03:03 35.58440 -90.26989 38872 ft 517 kts 80°
2026-04-26 03:04 35.59192 -90.18204 38872 ft 517 kts 80°
2026-04-26 03:04 35.59939 -90.09402 38872 ft 517 kts 80°
2026-04-26 03:05 35.60678 -90.00608 38872 ft 517 kts 80°
2026-04-26 03:05 35.61410 -89.91832 38878 ft 516 kts 81°
2026-04-26 03:06 35.62134 -89.83065 38877 ft 516 kts 81°
2026-04-26 03:06 35.62853 -89.74294 38880 ft 516 kts 81°
2026-04-26 03:07 35.63560 -89.65574 38881 ft 516 kts 81°
2026-04-26 03:07 35.64267 -89.56788 38881 ft 516 kts 81°
2026-04-26 03:08 35.64967 -89.48003 38887 ft 516 kts 81°
2026-04-26 03:08 35.65660 -89.39220 38886 ft 516 kts 81°
2026-04-26 03:09 35.66348 -89.30425 38585 ft 515 kts 81°
2026-04-26 03:09 35.66687 -89.26051 38114 ft 512 kts 81°
2026-04-26 03:09 35.67026 -89.21665 37112 ft 519 kts 81°
2026-04-26 03:10 35.67364 -89.17271 36066 ft 527 kts 81°
2026-04-26 03:10 35.67709 -89.12764 35200 ft 530 kts 81°
2026-04-26 03:10 35.68051 -89.08268 34702 ft 525 kts 81°
2026-04-26 03:10 35.68387 -89.03837 34409 ft 516 kts 81°
2026-04-26 03:11 35.68716 -88.99468 34005 ft 510 kts 81°
2026-04-26 03:11 35.69043 -88.95117 33371 ft 509 kts 81°
2026-04-26 03:11 35.69368 -88.90784 32686 ft 508 kts 81°
2026-04-26 03:11 35.69690 -88.86459 32107 ft 506 kts 81°
2026-04-26 03:12 35.70013 -88.82174 31608 ft 501 kts 81°
2026-04-26 03:12 35.70396 -88.77931 31067 ft 497 kts 80°
2026-04-26 03:12 35.70779 -88.73711 30543 ft 494 kts 81°
2026-04-26 03:12 35.71152 -88.69520 30025 ft 491 kts 81°
2026-04-26 03:13 35.71520 -88.65356 29405 ft 488 kts 81°
2026-04-26 03:13 35.71880 -88.61272 28860 ft 484 kts 81°
2026-04-26 03:13 35.72244 -88.57120 28352 ft 478 kts 81°
2026-04-26 03:13 35.72594 -88.53122 27869 ft 474 kts 81°
2026-04-26 03:14 35.72942 -88.49120 27372 ft 469 kts 81°
2026-04-26 03:14 35.73287 -88.45141 26908 ft 465 kts 81°
2026-04-26 03:14 35.73627 -88.41208 26433 ft 460 kts 81°
2026-04-26 03:14 35.73963 -88.37304 25966 ft 456 kts 81°
2026-04-26 03:15 35.74294 -88.33439 25537 ft 452 kts 81°
2026-04-26 03:15 35.74622 -88.29606 25067 ft 448 kts 81°
2026-04-26 03:15 35.74945 -88.25803 24611 ft 445 kts 81°
2026-04-26 03:15 35.75265 -88.22029 24157 ft 440 kts 81°
2026-04-26 03:16 35.75567 -88.18331 23708 ft 430 kts 84°
2026-04-26 03:16 35.75609 -88.14682 23194 ft 421 kts 87°
2026-04-26 03:16 35.75638 -88.11121 22731 ft 409 kts 86°
2026-04-26 03:16 35.75681 -88.07665 22333 ft 398 kts 86°
2026-04-26 03:17 35.75732 -88.04298 21928 ft 389 kts 86°
2026-04-26 03:17 35.75784 -88.01003 21540 ft 380 kts 86°
2026-04-26 03:17 35.75833 -87.97790 21158 ft 371 kts 86°
2026-04-26 03:17 35.75881 -87.94632 20652 ft 368 kts 86°
2026-04-26 03:18 35.75930 -87.91440 20077 ft 379 kts 87°
2026-04-26 03:18 35.75978 -87.88185 19478 ft 391 kts 87°
2026-04-26 03:18 35.76026 -87.84816 18885 ft 395 kts 87°
2026-04-26 03:18 35.76075 -87.81404 18271 ft 400 kts 87°
2026-04-26 03:19 35.76123 -87.77962 17574 ft 404 kts 87°
2026-04-26 03:19 35.76170 -87.74494 16920 ft 406 kts 88°
2026-04-26 03:19 35.76217 -87.71005 16283 ft 408 kts 88°
2026-04-26 03:19 35.76454 -87.67511 15400 ft 412 kts 75°
2026-04-26 03:20 35.77198 -87.64120 14606 ft 406 kts 68°
2026-04-26 03:20 35.78386 -87.61023 13860 ft 394 kts 58°
2026-04-26 03:20 35.79513 -87.57996 13081 ft 387 kts 70°
2026-04-26 03:20 35.80364 -87.54916 12537 ft 371 kts 68°
2026-04-26 03:21 35.81215 -87.52038 12200 ft 353 kts 68°
2026-04-26 03:21 35.82044 -87.49291 12106 ft 330 kts 67°
2026-04-26 03:21 35.82879 -87.46771 11974 ft 309 kts 62°
2026-04-26 03:21 35.83811 -87.44426 11539 ft 301 kts 62°
2026-04-26 03:22 35.84716 -87.42122 11074 ft 296 kts 62°
2026-04-26 03:22 35.85596 -87.39862 10678 ft 289 kts 62°
2026-04-26 03:22 35.86451 -87.37653 10314 ft 284 kts 62°
2026-04-26 03:22 35.87241 -87.35434 9976 ft 282 kts 73°
2026-04-26 03:23 35.87373 -87.33028 9676 ft 285 kts 96°
2026-04-26 03:23 35.87035 -87.30625 9462 ft 284 kts 98°
2026-04-26 03:23 35.86688 -87.28232 9250 ft 282 kts 98°
2026-04-26 03:23 35.86327 -87.25864 9032 ft 280 kts 99°
2026-04-26 03:24 35.85958 -87.23509 8809 ft 279 kts 99°
2026-04-26 03:24 35.85584 -87.21168 8589 ft 278 kts 99°
2026-04-26 03:24 35.85208 -87.18844 8368 ft 277 kts 99°
2026-04-26 03:24 35.84830 -87.16520 8165 ft 274 kts 100°
2026-04-26 03:25 35.84457 -87.14239 7933 ft 270 kts 100°
2026-04-26 03:25 35.84088 -87.11993 7708 ft 265 kts 100°
2026-04-26 03:25 35.83728 -87.09804 7491 ft 255 kts 100°
2026-04-26 03:25 35.83387 -87.07736 7293 ft 245 kts 100°
2026-04-26 03:26 35.83025 -87.05719 7118 ft 238 kts 104°
2026-04-26 03:26 35.82553 -87.03790 6941 ft 232 kts 105°
2026-04-26 03:26 35.82077 -87.01886 6808 ft 233 kts 105°
2026-04-26 03:26 35.81600 -86.99974 6690 ft 233 kts 105°
2026-04-26 03:27 35.81129 -86.98065 6592 ft 232 kts 103°
2026-04-26 03:27 35.80882 -86.96086 6503 ft 234 kts 93°
2026-04-26 03:27 35.80746 -86.94107 6453 ft 231 kts 93°
2026-04-26 03:27 35.80603 -86.92136 6385 ft 231 kts 93°
2026-04-26 03:28 35.80457 -86.90189 6351 ft 231 kts 94°
2026-04-26 03:28 35.80307 -86.88243 6330 ft 223 kts 94°
2026-04-26 03:28 35.80161 -86.86373 6172 ft 217 kts 94°
2026-04-26 03:28 35.80016 -86.84538 5943 ft 213 kts 94°
2026-04-26 03:29 35.80066 -86.82743 5660 ft 209 kts 71°
2026-04-26 03:29 35.80818 -86.81267 5408 ft 203 kts 40°
2026-04-26 03:29 35.82025 -86.80470 5279 ft 193 kts 22°
2026-04-26 03:29 35.83257 -86.79924 5216 ft 183 kts 21°
2026-04-26 03:30 35.84432 -86.79427 5214 ft 175 kts 20°
2026-04-26 03:30 35.85563 -86.78960 5160 ft 167 kts 20°
2026-04-26 03:30 35.86647 -86.78519 5073 ft 162 kts 20°
2026-04-26 03:30 35.87703 -86.78094 4955 ft 161 kts 20°
2026-04-26 03:31 35.88768 -86.77670 4801 ft 161 kts 20°
2026-04-26 03:31 35.89829 -86.77250 4639 ft 160 kts 20°
2026-04-26 03:31 35.90890 -86.76832 4484 ft 159 kts 20°
2026-04-26 03:31 35.91946 -86.76417 4313 ft 159 kts 20°
2026-04-26 03:32 35.93000 -86.76004 4176 ft 159 kts 20°
2026-04-26 03:32 35.94052 -86.75593 4014 ft 158 kts 20°
2026-04-26 03:32 35.95099 -86.75182 3879 ft 158 kts 21°
2026-04-26 03:32 35.96134 -86.74778 3689 ft 153 kts 21°
2026-04-26 03:33 35.97137 -86.74388 3527 ft 151 kts 21°
2026-04-26 03:33 35.98135 -86.73996 3340 ft 150 kts 21°
2026-04-26 03:33 35.99116 -86.73611 3157 ft 149 kts 21°
2026-04-26 03:33 36.00103 -86.73225 2968 ft 149 kts 21°
2026-04-26 03:34 36.01091 -86.72837 2774 ft 149 kts 21°
2026-04-26 03:34 36.02068 -86.72454 2573 ft 146 kts 21°
2026-04-26 03:34 36.03035 -86.72075 2398 ft 145 kts 21°
2026-04-26 03:34 36.03991 -86.71700 2215 ft 146 kts 21°
2026-04-26 03:35 36.04960 -86.71320 2016 ft 146 kts 20°
2026-04-26 03:35 36.05938 -86.70937 1829 ft 148 kts 20°
2026-04-26 03:35 36.06916 -86.70552 1637 ft 148 kts 20°
2026-04-26 03:35 36.07900 -86.70161 1430 ft 149 kts 20°
2026-04-26 03:36 36.08890 -86.69761 1221 ft 150 kts 20°
2026-04-26 03:36 36.09880 -86.69361 1030 ft 150 kts 18°
2026-04-26 03:36 36.10881 -86.68982 791 ft 150 kts 19°
2026-04-26 03:36 36.11877 -86.68604 613 ft 149 kts 20°
2026-04-26 03:37 36.12792 -86.68248 578 ft 118 kts 17°
2026-04-26 03:37 36.13177 -86.68087 579 ft 19 kts 51°
2026-04-26 03:37 36.13137 -86.67980 581 ft 0 kts 133°
2026-04-26 03:38 36.13134 -86.67976 580 ft 3 kts 134°
2026-04-26 03:38 36.13112 -86.67948 576 ft 7 kts 135°
2026-04-26 03:38 36.13087 -86.67919 576 ft 0 kts 136°
2026-04-26 03:38 36.13087 -86.67918 576 ft 0 kts 136°
2026-04-26 03:39 36.13078 -86.67907 578 ft 3 kts 134°
2026-04-26 03:39 36.13053 -86.67872 579 ft 9 kts 131°
2026-04-26 03:39 36.12983 -86.67777 580 ft 21 kts 133°
2026-04-26 03:39 36.12867 -86.67625 575 ft 23 kts 134°
2026-04-26 03:40 36.12792 -86.67531 582 ft 15 kts 133°
2026-04-26 03:40 36.12715 -86.67429 581 ft 17 kts 137°
2026-04-26 03:40 36.12632 -86.67320 583 ft 18 kts 132°
2026-04-26 03:40 36.12539 -86.67198 579 ft 22 kts 134°
2026-04-26 03:41 36.12446 -86.67077 581 ft 12 kts 134°
2026-04-26 03:41 36.12443 -86.66988 576 ft 14 kts 34°
2026-04-26 03:41 36.12539 -86.66917 574 ft 18 kts 30°
2026-04-26 03:41 36.12653 -86.66835 572 ft 18 kts 31°
2026-04-26 03:42 36.12736 -86.66763 574 ft 15 kts 28°
2026-04-26 03:42 36.12823 -86.66731 571 ft 6 kts 43°
2026-04-26 03:42 36.12832 -86.66688 569 ft 3 kts 85°
2026-04-26 03:42 36.12833 -86.66681 569 ft 0 kts 87°
2026-04-26 03:43 36.12833 -86.66668 570 ft 3 kts 87°
2026-04-26 03:43 36.12834 -86.66653 571 ft 0 kts 87°